Flag for Chile Weather past 2 weeks in Easter Island, Chile

Now
64 °F

Scattered clouds.


Feels Like: 64 °F
Forecast: 60 / 65 °F
Wind: 15 mph from Southeast

Location: Isla De Pascua

Current Time: Oct 20, 2014 at 6:04:19 PM

Latest Report: Oct 20, 2014 at 5:00 PM


Visibility: N/A

Pressure: 30.21 "Hg

Humidity: 56%

Dew point: 48 °F

Location of Easter IslandLocation

Historic Weather in Easter Island — Graph

°F

Easter Island temperature yesterday

Maximum temperature yesterday: 73 °F (at 3:00 PM)
Minimum temperature yesterday: 66 °F (at 12:00 AM)
Average temperature yesterday: 69 °F

Past Weeks' High & Low Weather Summary

 TemperatureHumidityPressure
High73 °F (Oct 19, 3:00 PM)94% (Oct 16, 4:00 AM)30.42 "Hg (Oct 16, 4:00 AM)
Low52 °F (Oct 16, 3:00 AM)45% (Oct 13, 5:00 AM)30.07 "Hg (Oct 11, 5:00 AM)
Average63 °F70%30.22 "Hg
* Reported Oct 5 5:00 PM — Oct 20 5:00 PM, Easter Island, Weather by CustomWeather, © 2014

Note: Actual official high and low records may vary slightly from our data, if they occured in-between our weather recording intervals... More about our weather records

Advertising

Easter Island weather history for previous 24 hours

 ConditionsComfort  
Time TempWeatherWind HumidityBarometerVisibility
5:00 PM
Oct 20
64 °FScattered clouds.15 mph56%30.21 "HgN/A
4:00 PM66 °FScattered clouds.10 mph52%30.24 "HgN/A
3:00 PM64 °FScattered clouds.9 mph60%30.24 "HgN/A
2:00 PM64 °FScattered clouds.10 mph60%30.24 "HgN/A
1:00 PM63 °FBroken clouds.7 mph64%30.24 "HgN/A
12:00 PM63 °FBroken clouds.10 mph64%30.24 "HgN/A
11:00 AM64 °FBroken clouds.13 mph68%30.21 "HgN/A
10:00 AM64 °FPartly cloudy.10 mph68%30.18 "HgN/A
9:00 AM63 °FPassing clouds.9 mph73%30.18 "HgN/A
8:00 AM63 °FPassing clouds.10 mph68%30.15 "HgN/A
7:00 AM63 °FPassing clouds.9 mph73%30.12 "HgN/A
6:00 AM61 °FSprinkles. Passing clouds.12 mph83%30.12 "HgN/A
5:00 AM61 °FSprinkles. Partly cloudy.3 mph88%30.12 "HgN/A
4:00 AM61 °FSprinkles. Partly cloudy.7 mph88%30.12 "Hg5 mi
3:00 AM61 °FSprinkles. Partly cloudy.8 mph88%30.15 "Hg5 mi
2:00 AM61 °FSprinkles. Partly cloudy.8 mph94%30.15 "Hg2 mi
1:00 AM61 °FSprinkles. Partly cloudy.9 mph94%30.15 "Hg2 mi
12:00 AM63 °FSprinkles. Partly cloudy.8 mph94%30.12 "Hg4 mi
10:00 PM
Oct 19
66 °FBroken clouds.8 mph83%30.12 "HgN/A
9:00 PM68 °FBroken clouds.10 mph78%30.09 "HgN/A
8:00 PM68 °FScattered clouds.13 mph78%30.09 "HgN/A
7:00 PM70 °FScattered clouds.10 mph69%30.09 "HgN/A
6:00 PM72 °FScattered clouds.15 mph69%30.09 "HgN/A
Weather by CustomWeather, © 2014

See weather overviewHow to use our weather pages